Location: Clinton NY
(43.0598°N, 75.3602°W)
Time: 10:25:07
(UTC-05:00)

Daily predictions for brighter satellites

Satellite Brightness Start Highest point End
(mag) Time Altitude Azimuth Time Altitude Azimuth Time Altitude Azimuth
Cosmos 1844 3.8 16:46:56 10° SSW 16:52:30 87° WNW 16:58:06 10° NNE
Meteor 2-19 Rocket 4.4 16:54:54 10° N 17:00:59 81° E 17:07:02 10° S
YAOGAN 1 3.0 16:58:13 10° SE 17:02:14 39° ENE 17:06:18 10° N
SPOT 3 Rocket 3.7 16:58:16 10° SE 17:03:15 51° ENE 17:08:15 10° N
Cosmos 2278 Rocket 2.2 17:00:53 10° SSW 17:06:30 76° ESE 17:12:10 10° NNE
Meteor 1-18 Rocket 4.3 17:01:38 10° S 17:07:14 68° E 17:13:00 10° NNE
COSMOS 2487 2.9 17:04:34 10° N 17:08:01 41° ENE 17:11:26 10° SE
USA 32 4.0 17:02:56 10° S 17:08:09 85° E 17:13:24 10° N
SL-8 R/B 3.8 17:04:35 10° WSW 17:09:21 75° NNW 17:14:01 11° ENE
Okean 1 3.6 17:06:08 10° S 17:10:02 50° E 17:14:00 10° NNE
Intercosmos 25 4.4 17:08:44 10° NNE 17:10:58 17° ENE 17:13:16 10° ESE
SMAP 3.1 17:10:44 10° SSE 17:15:18 61° ENE 17:19:54 10° N
Cosmos 1346 Rocket 3.2 17:12:18 10° SSE 17:15:56 39° E 17:19:34 10° NNE
Cosmos 1666 4.4 17:15:53 10° NE 17:17:55 14° ENE 17:19:55 10° E
Cosmos 1455 Rocket 3.2 17:13:57 10° N 17:18:23 84° W 17:22:49 10° S
Genesis I 3.4 17:15:53 10° NW 17:19:49 78° WSW 17:23:42 10° SSE
NOSS 2-1 (D) 4.2 17:19:35 10° S 17:22:59 31° ESE 17:25:53 14° ENE
NOSS 2-1 (C) 4.3 17:20:17 10° S 17:23:41 31° ESE 17:26:33 15° ENE
Cosmos 1833 Rocket 3.0 17:18:38 10° NNW 17:24:03 45° ENE 17:29:26 10° SE
ISS -1.4 17:23:28 10° WNW 17:26:01 20° N 17:28:02 13° NE
Cosmos 1809 Rocket 4.4 17:24:40 10° N 17:30:48 64° E 17:36:50 10° SSE
Cosmos 2082 Rocket 2.2 17:25:36 10° NNW 17:31:13 59° ENE 17:36:49 10° SE
IDEFIX/ARIANE 42P 2.6 17:27:08 10° SSE 17:32:20 89° E 17:37:33 10° NNW
OE (NEXTSAT) 4.4 17:30:53 10° WSW 17:34:27 76° NNW 17:36:45 21° ENE
Thor Agena Rocket 3.6 17:30:33 10° NNE 17:35:49 87° ESE 17:41:06 10° SSW
Cosmos 1500 3.2 17:35:42 10° N 17:39:33 89° W 17:43:24 10° S
Cosmos 1743 3.0 17:35:57 10° N 17:39:39 42° ENE 17:43:19 10° SSE
Tiangong 1 1.1 17:37:49 10° WSW 17:40:51 66° SSE 17:42:20 26° E
ASTRO F (AKARI) 4.3 17:38:28 14° NNE 17:41:02 53° ESE 17:44:09 10° S
NOSS 2-1 (E) 3.8 17:38:35 10° SSW 17:42:16 44° ESE 17:44:42 21° ENE
TIMED 4.4 17:38:06 10° S 17:42:27 70° ESE 17:46:27 12° NNE
Okean 1-7 Rocket 3.8 17:38:21 10° SSE 17:42:39 47° E 17:46:57 10° NNE
Meteor 1-28 Rocket 4.4 17:46:16 23° E 17:46:22 23° E 17:49:24 10° SSE
Meteor 1-19 Rocket 4.4 17:41:15 10° SSE 17:46:52 52° E 17:52:32 10° NNE
Cosmos 1934 Rocket 4.4 17:42:41 10° N 17:48:28 39° ENE 17:54:18 10° SE
Cosmos 1484 Rocket 2.6 17:50:39 10° SSE 17:54:20 63° ENE 17:58:01 10° N
USA 234 3.3 17:53:20 17° NE 17:58:33 80° NW 18:05:04 10° WSW
Cosmos 1975 4.2 17:55:31 10° NNW 17:59:20 41° W 18:03:07 10° SSW
Cosmos 1606 Rocket 3.9 18:01:48 10° N 18:06:05 43° ENE 18:10:20 10° SSE
CZ-4 R/B 3.7 18:03:22 10° SSW 18:06:56 27° W 18:10:29 10° NW
Meteor 1-13 Rocket 4.3 18:03:29 10° S 18:09:12 85° W 18:15:05 10° N
Meteor 2-9 Rocket 4.1 18:03:54 10° N 18:09:14 54° ENE 18:14:26 10° SSE
Cosmos 2239 Rocket 4.4 18:03:10 10° N 18:09:23 73° E 18:15:31 10° SSE
MSX 4.2 18:04:08 10° S 18:09:49 66° WSW 18:15:34 10° NNW
Meteor 1-23 Rocket 4.3 18:05:21 10° SSE 18:10:50 51° E 18:14:52 18° NNE
Cosmos 2369 Rocket 3.9 18:07:20 10° SE 18:08:55 15° SE 18:08:55 15° SE
COSMO-SKYMED 1 2.4 18:09:49 16° NNE 18:13:21 83° ESE 18:17:40 10° SSW
Abrixas 3.9 18:11:12 10° WNW 18:13:58 35° SW 18:15:00 26° S
NOSS 3-4 (A) 3.7 18:07:24 10° NNW 18:14:23 70° NE 18:21:48 10° SE
NOSS 3-4 (C) 3.7 18:07:30 10° NNW 18:14:29 69° NE 18:21:54 10° SE
Meteor 2-4 Rocket 3.5 18:09:41 10° S 18:14:58 63° E 18:19:06 17° NNE
CZ-2C R/B 4.1 18:10:32 10° SSW 18:15:08 36° W 18:19:52 10° NNW
CZ-3B DEB 3.3 18:15:24 10° W 18:19:53 47° NNW 18:25:58 23° NE
Cosmos 407 Rocket 3.6 18:15:34 10° N 18:20:32 48° ENE 18:21:59 37° ESE
Cosmos 1821 Rocket 3.8 18:15:15 10° N 18:21:22 85° E 18:27:29 10° S
Cosmos 2056 Rocket 3.5 18:16:28 10° S 18:21:45 63° ESE 18:23:51 36° NE
NOAA 12 4.0 18:20:39 10° SSE 18:25:52 67° ENE 18:31:05 10° N
Cosmos 921 Rocket 3.8 18:21:44 10° SW 18:25:53 50° WNW 18:28:57 18° N
Cosmos 1025 Rocket 2.9 18:21:30 10° S 18:25:53 88° E 18:28:12 28° N
Cosmos 1605 Rocket 3.9 18:25:51 10° N 18:32:05 59° E 18:38:09 10° SSE
Cosmos 1624 Rocket 3.9 18:29:34 10° SSW 18:34:46 87° ESE 18:36:48 39° NNE
Cosmos 1371 Rocket 4.3 18:35:09 10° SSW 18:40:30 69° WNW 18:43:24 28° N
METEOR-M 4.0 18:43:34 10° SSE 18:48:55 90° NNE 18:54:18 10° NNW
Cosmos 2278 Rocket 4.4 18:47:13 10° W 18:51:14 20° NW 18:55:16 10° N
SL-8 R/B 4.4 18:47:46 10° WNW 18:52:00 43° NNW 18:52:00 43° NNW
Cosmos 1666 3.8 18:50:09 10° NNW 18:53:50 43° W 18:57:31 10° SSW
BREEZE-M R/B 4.1 18:48:09 10° W 18:56:30 49° NNW 18:57:05 47° N
GEOS 3 Rocket 3.5 19:00:07 81° S 19:00:21 85° SW 19:05:30 10° NW
Cosmos 1727 Rocket 3.8 19:04:17 10° S 19:10:29 88° E 19:10:52 80° NNE
FALCON 9 R/B 3.5 19:05:40 10° W 19:23:09 49° SSW 19:24:36 44° SSE
USA 234 4.3 19:40:41 34° NNW 19:41:00 35° NNW 19:46:46 10° W
Cosmos 2369 Rocket 4.1 19:48:48 10° SW 19:50:47 22° SW 19:50:47 22° SW
